Temp_Advection
nan nan nan nan nan nan nan nan nan nan nan nan nan nan nan nan nan nan nan nan nan nan nan nan nan nan nan nan nan nan nan nan nan nan nan nan nan nan nan nan nan nan nan nan
nan -0 -1 -0 -0 -0 -0 0 0 -0 -0 0 -0 -0 -0 -0 -0 -1 -3 -1 -1 1 1 -1 -0 -0 -0 -0 -0 -0 -0 -0 0 -0 0 0 -0 -0 -0 -0 -0 -0 -1 nan
nan -1 0 -0 -0 0 0 0 0 -0 -0 -0 -0 -0 -0 -0 -1 -1 -0 -0 -0 -1 -0 -0 -0 -0 -0 -0 -0 0 -0 -0 0 0 0 0 0 0 -0 -0 -0 -0 -1 nan
nan -0 0 0 0 -0 0 -0 0 0 -0 -0 -0 0 -0 -1 -1 -0 0 0 -0 -0 -0 -0 -0 -0 -0 0 0 0 0 -0 -0 -0 0 0 0 -0 -0 -0 -0 -0 -0 nan
nan -0 -0 -0 -0 -0 -0 -0 -0 0 0 -0 -0 -0 0 -0 -1 -0 1 0 0 -0 -0 -0 -0 -0 -0 -0 -0 -0 -0 -0 -0 -0 -0 0 0 0 -0 -0 -0 -0 -1 nan
nan -0 0 -0 -0 0 0 -0 -0 -0 -0 -0 0 -0 0 0 -0 0 0 0 -0 -0 -0 -0 -0 -0 -0 -0 -0 0 0 0 -0 -0 -0 -0 -0 -0 -0 -0 -0 -0 -0 nan
nan -0 -0 -0 0 -0 -0 -1 -0 -0 -0 -0 0 -0 0 -0 -0 -0 -0 -0 0 1 0 -0 -0 -0 -0 0 0 0 0 0 -0 -0 -0 -0 -0 -0 -0 -0 -0 -0 -0 nan
nan -0 -0 0 -0 0 -0 -0 -0 -0 0 -0 -0 -0 -0 -0 -0 -0 -0 -0 0 1 0 0 -0 -0 -0 -0 0 1 0 -0 -0 -0 -0 -0 -0 -0 -0 -0 -0 -0 -0 nan
nan -0 0 0 0 -0 0 -0 -0 -0 0 -0 0 0 -0 -0 -0 0 0 0 1 1 0 0 -0 -0 -0 -0 0 1 0 0 0 0 0 0 0 -0 -0 -0 -0 -0 -0 nan
nan -0 -0 -0 -0 -0 0 0 -0 -0 0 0 0 0 0 -0 0 -0 -0 0 1 1 0 0 -0 -0 -0 -0 0 0 0 0 0 0 0 0 0 0 -0 -0 -0 -0 -0 nan
nan 0 -1 -0 -0 0 -0 -0 -0 -0 -0 0 0 -0 -0 0 -0 -0 -0 -0 0 0 0 0 -0 -0 -0 -0 -0 -0 0 0 0 0 0 0 -0 -0 -0 -0 -0 -1 -0 nan
nan 0 0 0 -0 -0 -0 -0 -0 -0 0 -0 0 -1 -0 -0 0 -1 -0 0 0 0 0 0 0 0 0 -0 -0 -0 -0 0 0 -0 -0 -0 -0 -0 -0 -0 -1 -1 -1 nan
nan -0 -0 -1 -0 -0 -0 -0 -0 -0 -0 -0 -0 -1 -0 -0 -0 0 -0 0 0 0 0 0 0 0 -0 -0 0 0 -0 -0 -0 -0 -0 -0 -0 -0 -1 -1 -1 -0 -1 nan
nan -0 -0 0 -0 0 -0 -0 0 -0 -0 -0 -0 -0 0 0 -0 0 -0 -0 0 0 0 0 0 0 0 0 -0 -0 -0 -0 -0 -0 -0 -1 -1 -1 -1 -0 -1 -1 -1 nan
nan 0 -0 0 -0 -0 0 0 -0 0 -0 -0 -0 -0 0 0 -0 0 -0 -0 -0 0 0 0 0 0 0 0 0 -0 -0 -0 -1 -1 -1 -1 -0 -1 -1 -1 -1 -1 -1 nan
nan 0 -0 -0 -0 -0 0 0 -0 -0 0 -0 -0 -0 0 0 -1 -0 -0 -1 -1 -0 -0 0 0 0 0 0 0 -0 -0 -0 -0 -0 -0 -0 -0 -0 -1 -1 -1 -1 -0 nan
nan -0 0 -0 -0 -1 -0 -1 -1 -0 -0 0 0 0 -0 0 -0 -1 -1 -1 -0 0 0 0 0 0 0 0 0 0 0 -0 -0 -0 -0 -0 -0 -0 -0 -0 -0 -0 -0 nan
nan -0 -0 -0 -0 -0 -1 -0 0 -0 -0 0 -0 1 0 0 0 -0 -0 0 0 1 0 0 0 0 0 0 0 0 0 0 0 -0 -0 -0 -0 -0 -0 -0 -0 -0 -0 nan
nan -0 -0 0 0 -1 -1 -1 -0 -0 0 0 -0 0 1 1 1 1 0 1 1 1 1 0 0 0 0 0 0 0 0 0 0 0 -0 -0 -0 -0 -0 -0 -0 -0 -0 nan
nan 0 -0 -0 0 -0 -0 -0 -0 -0 0 0 -1 -1 0 -0 -0 -1 -0 1 1 1 1 1 0 1 0 0 0 0 0 0 0 0 -0 -0 -0 -0 -0 -0 -0 -0 -0 nan
nan 0 0 -0 -0 -1 -1 -1 -0 -0 -0 0 -0 -1 -2 -0 -1 0 1 1 1 1 1 1 0 0 0 0 0 0 0 0 0 0 -0 0 0 -0 -0 -0 0 -0 -0 nan
nan -0 0 0 -0 -1 -1 0 0 -0 -1 -0 -0 -0 -1 -1 0 1 1 1 1 1 1 1 0 0 0 0 0 0 0 0 0 0 -0 -0 0 0 -0 -0 -0 -0 -0 nan
nan -0 -0 -0 -1 -1 -0 -0 -0 -0 -0 -0 -0 -0 0 0 1 1 1 1 1 1 1 0 0 1 0 0 0 0 0 0 0 0 0 -0 0 0 -0 -0 -1 -1 -1 nan
nan -0 -0 0 -0 -1 -1 -0 0 0 0 -0 -0 0 0 0 1 1 1 1 1 1 0 0 0 0 1 0 0 0 0 0 0 0 0 -0 -0 -0 -0 -0 -1 -1 -1 nan
nan 0 0 -0 -1 -1 -0 0 0 0 0 0 0 0 1 1 1 1 1 1 0 0 0 0 1 1 1 1 0 0 0 0 0 0 0 0 -0 -0 -0 0 0 -1 -0 nan
nan nan nan nan nan nan nan nan nan nan nan nan nan nan nan nan nan nan nan nan nan nan nan nan nan nan nan nan nan nan nan nan nan nan nan nan nan nan nan nan nan nan nan nan
Wind_Speed
3 3 6 11 7 7 5 1 3 4 5 5 2 5 4 16 33 29 28 33 31 26 18 8 7 9 8 8 6 5 3 3 1 0 2 2 3 3 2 4 8 12 14 18
4 6 11 7 6 7 1 2 6 6 6 3 2 4 3 3 18 28 31 29 30 27 23 13 5 9 9 8 6 5 4 2 1 2 2 4 5 3 1 8 10 11 14 20
6 8 5 4 5 2 3 2 4 6 7 2 4 4 8 7 15 18 20 25 26 25 23 15 10 9 8 8 8 8 6 4 2 3 5 7 3 1 7 7 8 11 18 23
6 13 7 1 3 4 3 3 4 4 3 1 5 1 12 11 15 17 14 15 17 17 16 15 8 7 6 6 8 9 8 8 6 4 2 3 2 5 6 7 9 13 17 22
8 6 6 2 4 2 6 3 1 2 3 2 2 5 2 5 13 8 14 12 12 9 9 8 6 5 4 2 5 6 8 8 6 7 4 4 5 5 5 8 12 18 20 25
9 10 4 6 3 3 1 2 4 3 3 2 3 6 3 2 7 1 9 16 14 17 18 16 11 6 2 3 8 10 8 6 5 9 5 5 6 6 11 14 17 19 18 23
5 4 5 9 1 3 5 5 3 3 3 4 1 6 3 5 8 10 10 13 17 20 17 14 13 12 8 1 8 11 10 5 6 8 6 6 5 9 11 15 17 22 23 24
2 6 3 3 7 5 1 6 4 2 0 2 5 4 3 2 21 18 17 20 19 18 16 13 10 7 6 5 5 12 8 5 5 3 3 5 4 5 9 14 17 21 20 17
2 1 2 7 3 4 2 2 3 4 3 3 2 2 4 3 6 16 13 22 20 19 15 11 8 7 7 7 7 11 7 5 5 5 5 4 2 8 13 18 20 21 19 17
0 2 1 1 5 5 3 1 3 3 3 3 2 3 4 8 7 8 16 21 22 19 15 12 10 9 10 12 10 7 7 10 9 7 5 4 9 12 15 19 22 24 24 25
2 3 5 3 3 2 3 2 4 3 4 4 1 5 5 15 12 10 20 23 24 20 15 12 11 10 9 7 6 7 8 8 7 5 6 10 14 17 19 21 22 23 23 23
2 3 1 3 2 0 3 1 3 4 3 1 4 5 4 8 15 24 23 26 24 20 16 12 10 8 5 2 1 1 1 3 6 9 12 15 17 18 19 19 20 21 22 23
2 2 2 5 5 4 4 1 1 4 3 6 6 5 2 8 15 26 29 26 26 21 16 12 8 4 3 1 2 3 5 7 10 14 16 15 15 16 18 19 21 23 25 26
2 2 5 5 4 2 2 2 2 3 3 3 6 5 5 6 13 21 24 29 26 20 16 12 7 3 1 2 3 6 10 13 13 12 13 14 15 18 19 21 23 25 26 27
3 1 2 2 2 2 2 5 8 4 5 5 6 7 8 10 15 25 31 28 25 21 17 12 8 5 3 3 4 8 11 11 11 13 14 15 17 19 21 22 24 26 26 27
3 2 2 4 2 3 7 9 10 12 10 9 7 11 7 13 23 26 31 30 25 22 17 13 8 5 5 5 5 9 9 10 12 14 15 17 19 21 22 24 26 26 27 30
3 4 3 4 4 5 7 11 10 9 7 7 10 11 13 12 22 27 29 26 25 24 20 16 11 9 7 6 6 10 7 8 11 14 16 19 21 22 23 25 26 27 30 33
6 6 3 2 3 2 7 6 8 8 2 4 4 10 15 18 17 23 24 25 26 24 21 16 12 9 8 8 8 8 5 7 11 13 17 21 23 24 25 26 26 30 32 32
6 5 2 3 2 7 10 9 4 6 3 2 8 10 18 21 15 8 14 20 22 22 17 13 10 9 9 8 9 6 6 8 11 15 19 22 24 24 25 25 28 31 31 31
6 4 5 3 3 6 5 5 16 3 2 4 12 15 19 14 3 5 17 19 19 17 15 14 12 10 10 9 8 8 8 10 14 16 20 22 23 23 23 25 28 28 30 31
4 2 9 3 5 7 8 15 6 2 5 14 23 24 24 6 7 3 13 18 17 16 15 13 10 10 11 10 10 10 11 13 15 18 21 22 22 21 23 25 25 29 30 32
6 7 4 3 2 11 11 5 6 6 16 22 22 24 25 16 10 10 16 19 17 17 15 14 12 11 10 10 11 12 13 15 16 19 22 21 21 21 23 24 27 27 30 32
4 7 6 8 7 7 6 5 10 13 24 23 20 18 15 15 13 15 19 19 17 16 15 13 11 11 11 11 13 14 15 15 18 21 21 20 20 21 22 25 26 28 28 30
3 7 5 4 6 17 20 11 11 18 18 19 17 14 15 12 12 17 17 19 19 19 17 15 14 14 13 13 14 16 16 17 19 21 20 19 19 20 22 22 24 27 27 29
7 9 5 4 7 9 12 13 19 16 16 18 17 18 18 16 13 15 19 22 22 21 20 18 16 15 15 16 16 17 17 18 20 20 19 18 18 20 20 21 25 27 25 23
4 5 4 5 10 9 9 10 6 5 10 18 21 22 20 16 13 16 18 23 26 26 22 20 18 17 17 17 17 17 17 19 18 18 17 17 18 19 19 22 24 26 26 24
Wind_Direction
267 107 240 243 193 238 225 8 291 275 310 33 32 0 18 115 121 134 132 129 124 111 122 92 110 100 98 114 118 124 136 125 148 12 26 357 334 356 47 27 13 17 22 13
359 251 241 262 231 223 235 284 295 284 297 164 9 349 127 123 150 141 133 126 121 131 119 123 122 93 94 100 101 111 128 110 244 289 286 279 303 312 322 355 7 15 12 7
186 254 334 230 267 244 271 217 269 269 323 311 127 40 360 31 76 96 107 116 121 119 119 123 113 98 90 84 67 56 45 38 334 284 273 276 270 208 347 358 5 10 2 3
232 258 248 108 241 157 237 259 259 288 42 306 74 258 26 42 55 59 85 102 117 126 124 113 119 119 105 77 33 12 12 22 12 1 291 233 254 322 340 359 9 358 356 359
242 310 318 314 247 181 230 332 296 264 321 65 359 86 287 19 47 30 59 111 115 110 102 104 107 116 119 24 3 343 344 346 11 17 346 296 298 313 342 353 347 346 351 352
243 244 213 228 221 171 213 340 345 16 95 350 189 126 244 210 144 239 75 78 70 98 97 94 96 121 161 7 339 315 309 305 8 15 18 349 330 344 346 337 341 339 340 343
294 258 198 203 206 335 61 62 343 356 30 224 112 68 195 178 175 175 148 97 111 112 112 101 88 82 79 276 271 266 268 295 359 359 355 353 345 351 350 338 334 334 331 337
23 338 350 160 165 186 134 158 160 186 249 275 7 120 238 284 191 174 142 129 124 121 111 100 76 51 49 45 214 242 250 344 347 345 11 22 11 332 321 324 326 327 332 331
43 314 6 63 72 105 324 70 185 129 354 103 167 35 331 74 138 170 142 137 130 119 115 102 83 45 17 18 171 202 205 214 166 140 163 180 252 304 315 319 323 328 326 324
135 4 334 10 47 21 141 178 61 12 161 207 216 196 214 210 202 146 141 145 133 130 124 111 92 79 88 96 117 155 163 159 166 171 196 270 300 310 317 319 321 322 319 317
35 107 296 58 55 201 15 26 57 105 129 156 197 251 219 202 194 170 160 148 144 139 131 115 104 110 102 105 115 112 127 155 188 234 284 302 308 316 321 323 324 326 327 328
61 126 145 82 347 40 108 88 123 119 205 115 146 270 282 206 194 149 153 156 151 145 137 128 125 119 124 98 84 29 333 305 316 316 314 316 317 321 327 337 340 341 340 338
329 15 60 356 346 357 68 333 76 86 66 186 142 255 246 148 130 152 151 151 152 149 148 147 138 131 107 65 266 307 324 329 321 317 317 321 330 340 347 347 345 343 341 339
74 109 142 188 229 181 298 268 229 137 114 204 213 224 219 154 143 146 150 156 157 160 166 165 153 156 225 276 303 322 321 321 322 333 339 342 348 350 348 344 341 338 339 339
96 135 344 111 9 350 263 275 285 238 197 185 237 212 240 181 167 162 157 160 163 167 170 176 175 191 224 260 290 310 315 325 338 347 349 351 348 344 341 339 340 341 341 341
25 243 99 315 303 299 280 262 248 260 259 248 242 258 226 160 148 151 164 165 171 179 182 180 186 211 239 261 296 322 322 334 337 346 346 343 340 340 340 341 340 341 342 338
124 115 83 263 344 359 308 251 236 239 220 216 243 241 147 144 158 166 172 184 191 192 189 192 204 223 242 266 304 322 313 326 325 336 334 335 337 337 339 337 339 341 338 335
144 120 102 229 22 309 242 285 283 240 272 213 111 145 159 153 160 175 187 192 195 192 190 196 208 220 248 271 296 311 289 295 309 322 325 330 332 335 335 336 338 337 337 335
169 126 127 177 186 292 296 273 251 185 226 199 132 123 133 138 142 157 194 206 205 201 202 208 219 240 248 260 290 301 275 286 302 318 324 327 330 332 332 336 336 336 335 335
95 104 147 129 172 239 245 286 0 36 256 174 148 143 147 149 117 246 211 207 200 204 208 213 225 238 249 263 288 295 287 294 308 322 326 326 328 330 333 334 334 336 335 337
119 54 199 147 214 274 240 274 334 103 241 159 168 166 165 177 204 268 203 200 205 211 215 220 229 240 250 266 284 295 298 302 316 322 323 326 328 331 333 334 337 338 340 339
156 160 191 133 154 256 233 271 201 203 164 170 174 179 187 203 213 218 204 204 210 214 214 222 230 233 248 267 282 292 300 309 317 321 324 327 329 331 333 337 339 341 343 343
196 179 181 182 207 238 208 246 274 233 183 181 190 192 198 196 202 198 198 207 213 216 221 222 229 230 243 263 276 289 302 308 318 322 324 327 329 332 337 342 344 345 348 346
253 158 176 104 239 245 247 264 241 191 193 193 199 215 216 220 216 206 210 209 206 209 211 218 221 228 243 252 269 286 298 307 317 319 323 325 329 335 340 344 345 350 351 347
206 151 180 254 274 250 250 278 210 209 214 212 228 236 227 216 220 216 215 214 211 210 212 225 230 236 241 253 269 283 295 305 314 318 322 324 332 337 341 343 350 353 352 346
199 180 158 225 223 227 253 214 210 260 244 240 240 220 213 227 220 213 227 221 211 212 216 221 229 241 246 255 270 283 296 305 312 319 320 326 334 337 339 340 344 351 351 350
Height
1533 1541 1545 1538 1539 1536 1536 1536 1540 1532 1526 1526 1529 1525 1526 1521 1525 1533 1535 1535 1536 1536 1550 1560 1559 1557 1558 1558 1558 1558 1558 1559 1559 1559 1559 1558 1558 1559 1559 1559 1558 1557 1557 1554
1538 1542 1531 1530 1530 1533 1531 1535 1538 1530 1524 1525 1525 1526 1527 1525 1522 1524 1532 1537 1538 1546 1541 1553 1559 1556 1557 1559 1559 1558 1558 1558 1559 1559 1558 1558 1558 1559 1560 1559 1558 1557 1555 1553
1542 1531 1527 1529 1528 1531 1531 1534 1534 1537 1525 1521 1525 1535 1536 1531 1532 1535 1537 1541 1545 1545 1547 1555 1556 1556 1557 1559 1558 1557 1558 1558 1558 1559 1558 1558 1559 1560 1559 1559 1558 1556 1554 1552
1533 1524 1526 1527 1528 1528 1535 1525 1527 1529 1533 1544 1527 1558 1546 1542 1542 1543 1544 1547 1551 1553 1554 1554 1556 1556 1556 1557 1557 1558 1558 1558 1559 1559 1558 1559 1560 1560 1559 1559 1558 1556 1554 1551
1531 1525 1527 1526 1524 1522 1531 1523 1525 1526 1533 1535 1535 1553 1555 1551 1553 1554 1551 1551 1551 1553 1553 1554 1557 1556 1555 1555 1555 1557 1558 1558 1559 1559 1559 1559 1560 1560 1559 1558 1557 1554 1552 1549
1522 1519 1521 1521 1518 1519 1520 1523 1525 1527 1534 1553 1538 1546 1562 1553 1552 1553 1549 1547 1551 1550 1552 1553 1554 1555 1555 1555 1555 1557 1559 1559 1560 1559 1559 1559 1559 1559 1559 1557 1554 1552 1549 1547
1521 1515 1511 1515 1521 1519 1521 1536 1555 1553 1558 1559 1537 1549 1554 1550 1549 1547 1548 1551 1555 1552 1551 1552 1552 1554 1554 1556 1556 1558 1558 1559 1560 1559 1559 1559 1558 1557 1556 1554 1551 1548 1545 1543
1534 1536 1514 1510 1517 1524 1523 1534 1557 1558 1563 1554 1543 1561 1554 1544 1544 1549 1551 1552 1556 1555 1553 1554 1552 1551 1552 1553 1555 1556 1558 1559 1559 1559 1558 1558 1556 1555 1552 1551 1549 1546 1543 1540
1532 1528 1513 1511 1513 1516 1524 1536 1526 1542 1546 1556 1557 1553 1545 1546 1547 1551 1554 1554 1556 1553 1554 1553 1553 1552 1551 1553 1552 1554 1556 1556 1557 1556 1555 1554 1553 1552 1550 1548 1545 1542 1540 1536
1522 1533 1517 1515 1514 1517 1521 1524 1541 1551 1559 1559 1556 1558 1555 1548 1547 1549 1554 1555 1553 1553 1553 1553 1554 1554 1555 1554 1554 1554 1554 1553 1554 1554 1554 1552 1550 1549 1546 1544 1541 1539 1536 1532
1521 1529 1530 1518 1527 1530 1530 1533 1536 1540 1554 1572 1578 1561 1534 1535 1538 1544 1548 1550 1551 1551 1552 1553 1554 1556 1556 1557 1556 1556 1555 1555 1555 1554 1553 1551 1549 1546 1544 1541 1538 1535 1532 1528
1525 1532 1539 1531 1527 1523 1524 1530 1534 1561 1552 1565 1572 1561 1527 1527 1529 1537 1545 1549 1550 1550 1552 1553 1554 1555 1555 1556 1556 1555 1555 1554 1553 1552 1550 1548 1546 1543 1540 1537 1534 1531 1528 1526
1525 1536 1550 1542 1537 1528 1531 1529 1529 1540 1548 1554 1569 1557 1527 1527 1531 1535 1540 1546 1548 1549 1551 1552 1553 1553 1554 1554 1555 1555 1554 1553 1551 1550 1548 1546 1543 1540 1537 1534 1532 1529 1525 1522
1524 1532 1539 1558 1543 1538 1537 1532 1532 1537 1562 1553 1552 1538 1529 1531 1533 1536 1540 1542 1545 1547 1549 1550 1551 1552 1552 1553 1554 1553 1553 1551 1549 1547 1545 1543 1541 1538 1535 1532 1529 1526 1522 1518
1527 1536 1533 1534 1536 1535 1534 1535 1535 1536 1537 1548 1536 1535 1526 1525 1528 1531 1535 1540 1543 1545 1547 1547 1548 1549 1549 1551 1552 1551 1551 1549 1547 1544 1543 1541 1539 1536 1533 1529 1526 1522 1518 1514
1527 1539 1537 1549 1536 1535 1537 1533 1531 1529 1527 1527 1526 1524 1517 1518 1525 1531 1534 1537 1540 1541 1542 1543 1545 1547 1548 1549 1549 1549 1548 1546 1544 1542 1541 1540 1536 1533 1530 1526 1522 1517 1513 1509
1532 1541 1549 1549 1539 1539 1545 1526 1523 1519 1517 1517 1524 1513 1516 1522 1524 1526 1531 1534 1535 1537 1539 1540 1542 1544 1546 1546 1547 1547 1546 1544 1542 1539 1539 1537 1533 1530 1526 1522 1517 1513 1508 1504
1532 1537 1552 1558 1548 1566 1524 1515 1514 1514 1511 1510 1510 1510 1513 1517 1523 1527 1529 1530 1532 1534 1536 1538 1539 1541 1543 1544 1544 1545 1543 1541 1539 1536 1536 1533 1530 1526 1521 1516 1512 1508 1503 1499
1521 1533 1549 1555 1561 1539 1521 1511 1509 1510 1511 1509 1509 1513 1517 1521 1524 1528 1529 1530 1530 1532 1534 1536 1537 1538 1540 1541 1542 1541 1540 1538 1536 1534 1532 1530 1526 1521 1516 1512 1507 1503 1499 1494
1522 1525 1536 1561 1552 1548 1521 1510 1505 1504 1518 1509 1509 1515 1518 1523 1536 1528 1527 1528 1529 1531 1532 1533 1535 1536 1537 1538 1538 1538 1537 1535 1533 1531 1529 1526 1522 1518 1513 1508 1503 1499 1495 1489
1530 1537 1530 1544 1552 1532 1513 1508 1507 1522 1521 1508 1510 1513 1517 1521 1521 1521 1522 1525 1527 1528 1530 1531 1532 1533 1534 1534 1534 1534 1533 1532 1530 1528 1526 1522 1518 1514 1509 1504 1499 1494 1490 1484
1522 1530 1535 1538 1538 1530 1502 1507 1514 1506 1503 1506 1510 1512 1514 1516 1517 1519 1520 1522 1523 1525 1527 1528 1529 1530 1531 1531 1531 1530 1529 1528 1526 1524 1522 1518 1514 1510 1505 1500 1495 1490 1485 1479
1515 1509 1519 1518 1514 1499 1499 1499 1499 1497 1499 1502 1505 1507 1509 1511 1513 1515 1517 1518 1520 1522 1524 1525 1526 1528 1528 1528 1527 1526 1525 1524 1522 1520 1517 1514 1510 1506 1501 1495 1491 1487 1482 1476
1497 1496 1503 1508 1499 1497 1494 1495 1496 1496 1499 1500 1502 1503 1504 1507 1508 1510 1512 1514 1516 1518 1520 1522 1523 1524 1525 1524 1523 1523 1522 1521 1518 1516 1513 1510 1506 1503 1498 1493 1489 1484 1479 1474
1493 1493 1496 1499 1493 1493 1492 1491 1493 1495 1496 1497 1498 1498 1499 1502 1503 1505 1507 1509 1511 1513 1516 1518 1519 1520 1520 1520 1520 1520 1519 1518 1514 1512 1509 1506 1502 1499 1494 1490 1485 1482 1478 1474
1487 1489 1497 1498 1486 1486 1488 1489 1490 1491 1493 1493 1493 1494 1496 1498 1499 1501 1502 1504 1506 1508 1510 1513 1515 1516 1516 1516 1516 1516 1515 1513 1510 1508 1505 1502 1498 1495 1490 1486 1482 1480 1475 1471